North Vernon, Indiana, United States (47265)
Lat: 39.01N, Lon: 85.62W
Wx Zone: INZ072
Local Info
Past Weather Observations for Saturday, April 30, 2016

NOTE: This archive is for the closest National Weather Service station to North Vernon. Information may differ from the station used for current weather conditions.

Click here for Long-term Archive

Time Weather Temperature Dewpoint Humidity Pressure Winds Precip Visibility
23:53
Overcast
63°F / 17°C 61°F / 16°C 94% 29.89 in
(1012 mb)
SE 8.1 mph
(SE 13 kph)
0.02 in
(0.51 mm)
9SM
23:46
Overcast
Light Rain
63°F / 17°C 61°F / 16°C 94% 29.89 in
(1012 mb)
SE 4.6 mph
(SE 7 kph)
0.02 in
(0.51 mm)
10SM
23:21
Overcast
Light Rain
63°F / 17°C 61°F / 16°C 94% 29.89 in
(1012 mb)
SSE 8.1 mph
(SSE 13 kph)
0.02 in
(0.51 mm)
10SM
22:56
Overcast
Light Rain
63°F / 17°C 61°F / 16°C 94% 29.89 in
(1012 mb)
SSE 10.4 mph
(SSE 17 kph)
0.00 in
(0.00 mm)
8SM
22:53
Overcast
Rain
63°F / 17°C 61°F / 16°C 94% 29.89 in
(1012 mb)
SSE 10.4 mph
(SSE 17 kph)
0.03 in
(0.76 mm)
8SM
21:53
Overcast
63°F / 17°C 59°F / 15°C 88% 29.89 in
(1012 mb)
S 8.1 mph
(S 13 kph)
- 10SM
20:53
Overcast
63°F / 17°C 59°F / 15°C 88% 29.86 in
(1011 mb)
S 8.1 mph
(S 13 kph)
- 10SM
19:53
Overcast
63°F / 17°C 59°F / 15°C 88% 29.86 in
(1011 mb)
SSE 9.2 mph
(SSE 15 kph)
- 10SM
18:53
Mostly Cloudy
63°F / 17°C 59°F / 15°C 88% 29.86 in
(1011 mb)
SSE 11.5 mph
(SSE 19 kph)
0.00 in
(0.00 mm)
10SM
18:10
Overcast
63°F / 17°C 57°F / 14°C 83% 29.86 in
(1011 mb)
SE 13.8 mph
(SE 22 kph)
0.00 in
(0.00 mm)
10SM
18:01
Overcast
63°F / 17°C 57°F / 14°C 83% 29.86 in
(1011 mb)
SSE 11.5 mph
(SSE 19 kph)
0.00 in
(0.00 mm)
10SM
17:53
Overcast
Light Rain
63°F / 17°C 57°F / 14°C 83% 29.86 in
(1011 mb)
SSE 13.8 mph
(SSE 22 kph)
0.00 in
(0.00 mm)
10SM
17:48
Overcast
Light Rain
61°F / 16°C 57°F / 14°C 88% 29.86 in
(1011 mb)
SE 13.8 mph
(SE 22 kph)
0.00 in
(0.00 mm)
10SM
17:36
Overcast
Light Rain
61°F / 16°C 57°F / 14°C 88% 29.86 in
(1011 mb)
SE 13.8 mph
(SE 22 kph)
0.00 in
(0.00 mm)
10SM
16:53
Overcast
61°F / 16°C 57°F / 14°C 88% 29.89 in
(1012 mb)
SE 11.5 mph
(SE 19 kph)
- 10SM
16:20
Overcast
61°F / 16°C 57°F / 14°C 88% 29.89 in
(1012 mb)
SE 11.5 mph
(SE 19 kph)
- 10SM
15:53
Overcast
61°F / 16°C 55°F / 13°C 83% 29.89 in
(1012 mb)
SE 9.2 mph
(SE 15 kph)
0.00 in
(0.00 mm)
10SM
15:46
Overcast
61°F / 16°C 55°F / 13°C 83% 29.89 in
(1012 mb)
ESE 6.9 mph
(ESE 11 kph)
0.00 in
(0.00 mm)
10SM
14:53
Overcast
Light Rain
59°F / 15°C 55°F / 13°C 88% 29.92 in
(1013 mb)
SE 6.9 mph
(SE 11 kph)
0.06 in
(1.52 mm)
7SM
13:53
Overcast
Light Rain
57°F / 14°C 54°F / 12°C 88% 29.92 in
(1013 mb)
SE 11.5 mph
(SE 19 kph)
0.05 in
(1.27 mm)
7SM
13:06
Overcast
Light Rain
57°F / 14°C 54°F / 12°C 88% 29.92 in
(1013 mb)
E 13.8 mph
(E 22 kph)
0.02 in
(0.51 mm)
7SM
12:53
Overcast
Light Rain
57°F / 14°C 52°F / 11°C 82% 29.95 in
(1014 mb)
ESE 13.8 mph
(ESE 22 kph)
0.03 in
(0.76 mm)
7SM
12:22
Overcast
Light Rain
55°F / 13°C 52°F / 11°C 88% 29.95 in
(1014 mb)
E 15 mph
(E 24 kph)
0.01 in
(0.25 mm)
9SM
11:53
Overcast
Light Rain
55°F / 13°C 52°F / 11°C 88% 29.95 in
(1014 mb)
E 16.1 mph
(E 26 kph)
0.05 in
(1.27 mm)
7SM
10:53
Overcast
Light Rain
54°F / 12°C 50°F / 10°C 88% 30.01 in
(1016 mb)
E 10.4 mph
(E 17 kph)
0.06 in
(1.52 mm)
8SM
09:53
Overcast
Light Rain
54°F / 12°C 48°F / 9°C 82% 30.04 in
(1017 mb)
SE 8.1 mph
(SE 13 kph)
0.11 in
(2.79 mm)
7SM
08:53
Overcast
Rain
54°F / 12°C 46°F / 8°C 77% 30.04 in
(1017 mb)
SE 6.9 mph
(SE 11 kph)
0.04 in
(1.02 mm)
8SM
07:53
Overcast
Light Rain
54°F / 12°C 46°F / 8°C 77% 30.01 in
(1016 mb)
ENE 10.4 mph
(ENE 17 kph)
0.02 in
(0.51 mm)
9SM
06:53
Overcast
54°F / 12°C 46°F / 8°C 77% 30.01 in
(1016 mb)
E 12.7 mph
(E 20 kph)
0.01 in
(0.25 mm)
10SM
05:53
Overcast
54°F / 12°C 46°F / 8°C 77% 30.01 in
(1016 mb)
E 11.5 mph
(E 19 kph)
- 10SM
04:53
Mostly Cloudy
54°F / 12°C 46°F / 8°C 77% 30.01 in
(1016 mb)
E 12.7 mph
(E 20 kph)
- 10SM
03:53
Partly Cloudy
54°F / 12°C 48°F / 9°C 82% 30.01 in
(1016 mb)
ESE 11.5 mph
(ESE 19 kph)
- 10SM
02:53
Clear
54°F / 12°C 46°F / 8°C 77% 30.01 in
(1016 mb)
E 9.2 mph
(E 15 kph)
- 10SM
01:53
Mostly Cloudy
54°F / 12°C 46°F / 8°C 77% 30.01 in
(1016 mb)
ENE 15 mph
(ENE 24 kph)
- 10SM
00:53
Mostly Cloudy
54°F / 12°C 46°F / 8°C 77% 30.01 in
(1016 mb)
ENE 15 mph
(ENE 24 kph)
- 10SM
Time Weather Temperature Dewpoint Humidity Pressure Winds Precip Visibility


Weather for websites

WeatherForYou.com, LLC is not responsible for any damages or problems caused by this service. Current weather conditions are obtained from the closest station including government and personal stations which may have varying degrees of accuracy. Weather forecasts are derived from the NOAA NDFD. Like all things, this site belongs to Jesus Christ... He just trusts us to maintain it. If you have any questions or comments email webmaster@weatherforyou.com

Copyright © 2016, WeatherForYou.com LLC. All rights reserved.